Overview Statistics Trail Chart Weather Telemetry Raw packets
 

This is the latest recevied weather packets stored in our database for station/object 9A7DI-13. If no packets are shown the sender has not sent any weather packets the latest 10 day(s).

<< 2 3 4 5 6 7 8 >>
Time Temp. Humidity Pressure Rain* Wind** Luminosity Snow
1788614199 30° C 31% 1026.5 hPa - - - -
1788613599 30° C 30% 1026.5 hPa - - - -
1788612999 30° C 31% 1026.7 hPa - - - -
1788612431 30° C 30% 1026.8 hPa - - - -
1788611799 30° C 31% 1026.9 hPa - - - -
1788611199 30° C 31% 1026.8 hPa - - - -
1788610599 30° C 30% 1026.7 hPa - - - -
1788609999 30° C 32% 1026.9 hPa - - - -
1788609399 29.44° C 32% 1026.9 hPa - - - -
1788608799 30° C 31% 1026.9 hPa - - - -
1788608199 30° C 32% 1026.7 hPa - - - -
1788607599 30° C 32% 1026.8 hPa - - - -
1788606999 30° C 33% 1026.7 hPa - - - -
1788606399 30° C 33% 1026.5 hPa - - - -
1788605799 30° C 34% 1026.6 hPa - - - -
1788605199 30.56° C 35% 1026.5 hPa - - - -
1788604599 30.56° C 35% 1026.3 hPa - - - -
1788604000 31.11° C 35% 1026.2 hPa - - - -
1788603400 31.67° C 36% 1026.2 hPa - - - -
1788602800 31.67° C 36% 1026.1 hPa - - - -
1788602200 31.67° C 36% 1026.1 hPa - - - -
1788601600 31.11° C 37% 1026 hPa - - - -
1788601000 31.11° C 38% 1026.1 hPa - - - -
1788600400 31.11° C 37% 1026 hPa - - - -
1788599800 30.56° C 37% 1025.9 hPa - - - -

* Rain since midnight (hover to see other rain measurements)
** Current wind speed in m/s (hover to see current wind gust speed)